SAS7224 LEIB-EKCH

Flight info

Callsign SAS7224
Flight time N/A
Altitude 36000
Route KABRE DCT ELTAN N853 MHN/N0438F380 N853 LUMAS DCT SOSUR DCT SECON DCT ODIXU DCT MAXIR DCT LUSOL DCT BODRU DCT OKTET DCT IRMAR DCT KINES DCT VANAS DCT MOBLO DCT UBIMA DCT SOSAL DCT KORED DCT BERSU DCT DITON/N0437F370 DCT LOKTA DCT TEDGO DCT HAREM DCT LOHRE DCT BERXO DCT MAKEL N851 GESKA/N0441F380 Z711 MONAK
Aircraft A319/M-SDE3FGIJ1RWXY/LB1

Departure

Time 2026-05-08 09:06
Airport Ibiza Airport (LEIB)

Arrival

Time N/A
Airport Copenhagen Kastrup Airport (EKCH)
Time Latitude Longitude Altitude Speed Heading
2026-05-08 08:39 38.87593 1.36991 9 ft 0 kts 332°
2026-05-08 08:57 38.87591 1.36993 8 ft 3 kts 332°
2026-05-08 08:57 38.87567 1.37008 9 ft 4 kts 332°
2026-05-08 08:57 38.87548 1.37021 10 ft 4 kts 323°
2026-05-08 08:58 38.87538 1.37041 10 ft 4 kts 248°
2026-05-08 08:58 38.87548 1.37067 8 ft 1 kts 242°
2026-05-08 08:58 38.87548 1.37068 8 ft 0 kts 242°
2026-05-08 09:00 38.87539 1.37047 10 ft 5 kts 242°
2026-05-08 09:00 38.87517 1.36992 8 ft 9 kts 242°
2026-05-08 09:01 38.87483 1.36908 8 ft 12 kts 242°
2026-05-08 09:01 38.87434 1.36803 8 ft 15 kts 218°
2026-05-08 09:01 38.87338 1.36840 9 ft 13 kts 153°
2026-05-08 09:01 38.87265 1.36818 9 ft 13 kts 240°
2026-05-08 09:02 38.87220 1.36704 10 ft 15 kts 243°
2026-05-08 09:02 38.87169 1.36576 8 ft 17 kts 242°
2026-05-08 09:02 38.87110 1.36434 8 ft 19 kts 242°
2026-05-08 09:02 38.87046 1.36279 9 ft 21 kts 242°
2026-05-08 09:03 38.86976 1.36111 9 ft 22 kts 242°
2026-05-08 09:03 38.86911 1.35952 8 ft 15 kts 242°
2026-05-08 09:03 38.86879 1.35874 8 ft 9 kts 242°
2026-05-08 09:03 38.86836 1.35813 8 ft 10 kts 186°
2026-05-08 09:04 38.86783 1.35845 7 ft 5 kts 152°
2026-05-08 09:04 38.86777 1.35849 8 ft 0 kts 152°
2026-05-08 09:04 38.86776 1.35850 8 ft 1 kts 152°
2026-05-08 09:04 38.86756 1.35864 6 ft 5 kts 152°
2026-05-08 09:05 38.86713 1.35893 6 ft 8 kts 152°
2026-05-08 09:05 38.86714 1.35932 6 ft 5 kts 74°
2026-05-08 09:05 38.86761 1.36046 5 ft 35 kts 62°
2026-05-08 09:05 38.86969 1.36554 7 ft 92 kts 62°
2026-05-08 09:06 38.87357 1.37486 13 ft 143 kts 62°
2026-05-08 09:06 38.87803 1.38578 569 ft 134 kts 61°
2026-05-08 09:06 38.88161 1.39701 1059 ft 138 kts 67°
2026-05-08 09:06 38.88430 1.40959 1288 ft 157 kts 75°
2026-05-08 09:07 38.88712 1.42455 1447 ft 187 kts 75°
2026-05-08 09:07 38.89034 1.44176 1800 ft 207 kts 75°
2026-05-08 09:07 38.89371 1.46013 2426 ft 214 kts 76°
2026-05-08 09:07 38.89708 1.47871 3261 ft 214 kts 76°
2026-05-08 09:08 38.90046 1.49741 4071 ft 216 kts 76°
2026-05-08 09:08 38.90385 1.51627 4869 ft 218 kts 76°
2026-05-08 09:08 38.90715 1.53538 5716 ft 219 kts 81°
2026-05-08 09:08 38.90757 1.55524 6376 ft 233 kts 96°
2026-05-08 09:09 38.90540 1.57694 6776 ft 257 kts 97°
2026-05-08 09:09 38.90311 1.60039 7405 ft 270 kts 97°
2026-05-08 09:09 38.90079 1.62467 8159 ft 278 kts 97°
2026-05-08 09:09 38.89831 1.64962 8935 ft 285 kts 101°
2026-05-08 09:10 38.89268 1.67431 9693 ft 292 kts 115°
2026-05-08 09:10 38.88391 1.69828 10236 ft 306 kts 117°
2026-05-08 09:10 38.87447 1.72396 10486 ft 330 kts 117°
2026-05-08 09:10 38.86451 1.75120 10949 ft 343 kts 117°
2026-05-08 09:11 38.85435 1.77918 11615 ft 349 kts 116°
2026-05-08 09:11 38.84405 1.80760 12286 ft 354 kts 116°
2026-05-08 09:11 38.83359 1.83649 12957 ft 360 kts 116°
2026-05-08 09:11 38.82300 1.86586 13623 ft 366 kts 115°
2026-05-08 09:12 38.81538 1.89728 14213 ft 373 kts 102°
2026-05-08 09:12 38.81325 1.93063 14832 ft 378 kts 89°
2026-05-08 09:12 38.81682 1.96419 15438 ft 383 kts 75°
2026-05-08 09:12 38.82605 1.99637 16027 ft 387 kts 65°
2026-05-08 09:13 38.83695 2.02814 16616 ft 392 kts 66°
2026-05-08 09:13 38.84787 2.06039 16915 ft 395 kts 67°
2026-05-08 09:13 38.85875 2.09282 17106 ft 398 kts 67°
2026-05-08 09:13 38.86967 2.12557 17690 ft 401 kts 68°
2026-05-08 09:14 38.88064 2.15864 18266 ft 405 kts 68°
2026-05-08 09:14 38.89176 2.19211 18751 ft 410 kts 68°
2026-05-08 09:14 38.90304 2.22594 19233 ft 415 kts 68°
2026-05-08 09:14 38.91445 2.26015 19716 ft 419 kts 68°
2026-05-08 09:15 38.92598 2.29477 20195 ft 424 kts 67°
2026-05-08 09:15 38.93764 2.32979 20671 ft 429 kts 68°
2026-05-08 09:15 38.94940 2.36524 21148 ft 434 kts 68°
2026-05-08 09:15 38.96128 2.40110 21612 ft 439 kts 68°
2026-05-08 09:16 38.97326 2.43733 22075 ft 443 kts 68°
2026-05-08 09:16 38.98536 2.47395 22534 ft 448 kts 68°
2026-05-08 09:16 38.99757 2.51096 22992 ft 452 kts 68°
2026-05-08 09:16 39.00974 2.54786 23450 ft 456 kts 68°
2026-05-08 09:17 39.02236 2.58609 23849 ft 460 kts 68°
2026-05-08 09:17 39.03473 2.62362 24252 ft 463 kts 68°
2026-05-08 09:17 39.04748 2.66238 24665 ft 466 kts 68°
2026-05-08 09:17 39.06013 2.70089 25051 ft 468 kts 67°
2026-05-08 09:18 39.07281 2.73956 25465 ft 470 kts 67°
2026-05-08 09:18 39.08554 2.77845 25876 ft 473 kts 67°
2026-05-08 09:18 39.09830 2.81752 26331 ft 473 kts 67°
2026-05-08 09:18 39.11105 2.85664 26766 ft 475 kts 68°
2026-05-08 09:19 39.12384 2.89591 27166 ft 477 kts 68°
2026-05-08 09:19 39.13649 2.93484 27545 ft 479 kts 68°
2026-05-08 09:19 39.14966 2.97433 27938 ft 481 kts 66°
2026-05-08 09:19 39.16402 3.01335 28328 ft 483 kts 63°
2026-05-08 09:20 39.17940 3.05201 28730 ft 486 kts 62°
2026-05-08 09:20 39.19536 3.09043 29102 ft 488 kts 61°
2026-05-08 09:20 39.21149 3.12901 29473 ft 490 kts 61°
2026-05-08 09:20 39.22752 3.16792 29839 ft 492 kts 62°
2026-05-08 09:21 39.24335 3.20720 30175 ft 495 kts 62°
2026-05-08 09:21 39.25903 3.24685 30469 ft 497 kts 63°
2026-05-08 09:22 39.35364 3.48937 32351 ft 507 kts 63°
2026-05-08 09:23 39.36960 3.53000 32737 ft 506 kts 63°
2026-05-08 09:23 39.38552 3.57060 33109 ft 507 kts 63°
2026-05-08 09:23 39.40140 3.61126 33479 ft 507 kts 63°
2026-05-08 09:23 39.41723 3.65192 33854 ft 507 kts 63°
2026-05-08 09:24 39.43307 3.69270 34204 ft 507 kts 64°
2026-05-08 09:24 39.44352 3.71966 34408 ft 507 kts 64°
2026-05-08 09:24 39.45933 3.76052 34701 ft 508 kts 64°
2026-05-08 09:24 39.47513 3.80144 34982 ft 509 kts 64°
2026-05-08 09:25 39.49098 3.84249 35206 ft 511 kts 63°
2026-05-08 09:25 39.50688 3.88367 35442 ft 512 kts 63°
2026-05-08 09:25 39.52284 3.92497 35753 ft 512 kts 63°
2026-05-08 09:25 39.53877 3.96627 35973 ft 513 kts 63°
2026-05-08 09:26 39.55465 4.00754 36023 ft 511 kts 63°
2026-05-08 09:26 39.58998 4.08684 36019 ft 507 kts 49°
2026-05-08 09:26 39.61381 4.12016 36023 ft 502 kts 38°
2026-05-08 09:27 39.64124 4.14767 36024 ft 496 kts 27°
2026-05-08 09:27 39.70294 4.18333 36029 ft 478 kts
2026-05-08 09:28 39.76766 4.19751 36020 ft 469 kts
2026-05-08 09:28 39.83212 4.21002 36030 ft 468 kts
2026-05-08 09:29 39.89652 4.22313 36032 ft 469 kts
2026-05-08 09:29 39.96079 4.23823 36059 ft 470 kts
2026-05-08 09:30 40.02445 4.25388 36046 ft 468 kts
2026-05-08 09:30 40.08845 4.26927 36043 ft 467 kts
2026-05-08 09:31 40.15228 4.28418 36041 ft 466 kts
2026-05-08 09:31 40.21604 4.29909 36051 ft 465 kts
2026-05-08 09:32 40.27971 4.31428 36046 ft 465 kts
2026-05-08 09:32 40.34333 4.32937 36046 ft 464 kts
2026-05-08 09:33 40.40694 4.34441 36068 ft 464 kts
2026-05-08 09:33 40.47046 4.35952 36061 ft 463 kts
2026-05-08 09:34 40.53387 4.37462 36053 ft 463 kts
2026-05-08 09:34 40.59722 4.38977 36050 ft 463 kts
2026-05-08 09:35 40.66059 4.40493 36051 ft 463 kts
2026-05-08 09:35 40.72395 4.42011 36050 ft 463 kts
2026-05-08 09:36 40.78733 4.43535 36045 ft 463 kts
2026-05-08 09:36 40.85070 4.45055 36065 ft 462 kts
2026-05-08 09:37 40.91398 4.46587 36058 ft 462 kts
2026-05-08 09:37 40.97720 4.48120 36056 ft 462 kts
2026-05-08 09:38 41.04035 4.49651 36051 ft 461 kts
2026-05-08 09:38 41.10355 4.51191 36071 ft 461 kts
2026-05-08 09:39 41.16669 4.52727 36065 ft 461 kts
2026-05-08 09:39 41.22982 4.54258 36062 ft 461 kts
2026-05-08 09:40 41.29290 4.55801 36076 ft 461 kts
2026-05-08 09:40 41.35553 4.57343 36067 ft 461 kts
2026-05-08 09:41 41.41852 4.58891 36064 ft 460 kts
2026-05-08 09:41 41.48141 4.60437 36086 ft 459 kts
2026-05-08 09:42 41.54417 4.61988 36072 ft 458 kts
2026-05-08 09:42 41.60687 4.63536 36066 ft 457 kts
2026-05-08 09:43 41.66941 4.65078 36060 ft 457 kts
2026-05-08 09:43 41.73188 4.66652 36075 ft 459 kts
2026-05-08 09:44 41.79355 4.69049 36072 ft 461 kts
2026-05-08 09:44 41.85509 4.71482 36061 ft 461 kts
2026-05-08 09:45 41.91661 4.73916 36074 ft 461 kts
2026-05-08 09:45 41.97806 4.76362 36067 ft 460 kts
2026-05-08 09:46 42.03941 4.78806 36055 ft 460 kts
2026-05-08 09:46 42.10069 4.81248 36083 ft 459 kts
2026-05-08 09:47 42.16149 4.83671 36072 ft 458 kts
2026-05-08 09:47 42.22251 4.86115 36066 ft 457 kts
2026-05-08 09:48 42.28347 4.88572 36061 ft 457 kts
2026-05-08 09:48 42.34435 4.91024 36069 ft 456 kts
2026-05-08 09:49 42.40520 4.93471 36060 ft 456 kts
2026-05-08 09:49 42.46599 4.95922 36053 ft 455 kts
2026-05-08 09:50 42.52665 4.98368 36084 ft 454 kts
2026-05-08 09:50 42.58719 5.00810 36070 ft 453 kts
2026-05-08 09:51 42.64764 5.03212 36064 ft 452 kts
2026-05-08 09:51 42.70808 5.05595 36060 ft 452 kts
2026-05-08 09:52 42.76844 5.07984 36055 ft 452 kts
2026-05-08 09:52 42.82814 5.10835 36048 ft 463 kts 19°
2026-05-08 09:53 42.88236 5.15825 36038 ft 474 kts 30°
2026-05-08 09:53 42.93513 5.21211 36068 ft 474 kts 30°
2026-05-08 09:54 42.98799 5.26580 36064 ft 473 kts 30°
2026-05-08 09:54 43.04077 5.31951 36059 ft 473 kts 30°
2026-05-08 09:55 43.09350 5.37342 36049 ft 473 kts 30°
2026-05-08 09:55 43.14570 5.42709 36066 ft 472 kts 30°
2026-05-08 09:56 43.19821 5.48108 36061 ft 471 kts 30°
2026-05-08 09:56 43.25060 5.53508 36052 ft 471 kts 30°
2026-05-08 09:57 43.32911 5.61632 36068 ft 471 kts 30°
2026-05-08 09:57 43.38133 5.67035 36051 ft 469 kts 30°
2026-05-08 09:58 43.43340 5.72442 36042 ft 469 kts 30°
2026-05-08 09:58 43.48540 5.77850 36040 ft 468 kts 30°
2026-05-08 09:59 43.53736 5.83260 36033 ft 468 kts 30°
2026-05-08 09:59 43.58925 5.88674 35999 ft 467 kts 31°
2026-05-08 10:00 43.64096 5.94105 36016 ft 467 kts 31°
2026-05-08 10:00 43.69225 5.99504 36046 ft 466 kts 32°
2026-05-08 10:01 43.74387 6.04934 36041 ft 466 kts 32°
2026-05-08 10:01 43.79808 6.09663 36045 ft 456 kts 20°
2026-05-08 10:02 43.85512 6.13524 36030 ft 456 kts 20°
2026-05-08 10:02 43.91211 6.17399 36050 ft 456 kts 21°
2026-05-08 10:03 43.96900 6.21289 36038 ft 456 kts 21°
2026-05-08 10:03 44.02588 6.25194 36032 ft 456 kts 21°
2026-05-08 10:04 44.08271 6.29102 36045 ft 456 kts 21°
2026-05-08 10:04 44.13965 6.33011 36034 ft 456 kts 21°
2026-05-08 10:05 44.19661 6.36933 36031 ft 457 kts 21°
2026-05-08 10:05 44.25353 6.40869 36048 ft 456 kts 22°
2026-05-08 10:06 44.31048 6.44806 36033 ft 457 kts 21°
2026-05-08 10:06 44.36749 6.48752 36016 ft 457 kts 22°
2026-05-08 10:07 44.42453 6.52724 36017 ft 458 kts 22°
2026-05-08 10:07 44.48164 6.56711 36043 ft 459 kts 23°
2026-05-08 10:08 44.53880 6.60697 36033 ft 459 kts 22°
2026-05-08 10:08 44.59599 6.64692 36032 ft 459 kts 23°
2026-05-08 10:09 44.65318 6.68701 36033 ft 460 kts 23°
2026-05-08 10:09 44.71038 6.72719 36042 ft 460 kts 23°
2026-05-08 10:10 44.76782 6.76653 36042 ft 457 kts 17°
2026-05-08 10:10 44.82888 6.78668 36056 ft 448 kts 359°
2026-05-08 10:11 44.89019 6.78455 36055 ft 443 kts 353°
2026-05-08 10:11 44.95187 6.78043 36042 ft 444 kts 353°
2026-05-08 10:12 45.01361 6.77643 36066 ft 444 kts 353°
2026-05-08 10:12 45.07542 6.77232 36064 ft 445 kts 353°
2026-05-08 10:13 45.13736 6.76818 36054 ft 446 kts 353°
2026-05-08 10:13 45.19933 6.76402 36068 ft 446 kts 353°
2026-05-08 10:14 45.25093 6.76061 36061 ft 447 kts 353°
2026-05-08 10:14 45.31308 6.75641 36059 ft 447 kts 353°
2026-05-08 10:15 45.37525 6.75223 36059 ft 448 kts 353°
2026-05-08 10:15 45.43753 6.74811 36067 ft 448 kts 353°
2026-05-08 10:16 45.49975 6.74401 36063 ft 448 kts 353°
2026-05-08 10:16 45.56201 6.73973 36055 ft 447 kts 353°
2026-05-08 10:17 45.62426 6.73541 36065 ft 448 kts 353°
2026-05-08 10:17 45.68661 6.73113 36057 ft 449 kts 353°
2026-05-08 10:18 45.74896 6.72677 36048 ft 449 kts 353°
2026-05-08 10:18 45.81139 6.72244 36059 ft 450 kts 353°
2026-05-08 10:19 45.87396 6.71825 36049 ft 450 kts 353°
2026-05-08 10:20 45.96769 6.71197 36051 ft 449 kts 353°
2026-05-08 10:20 46.03010 6.70769 36055 ft 449 kts 353°
2026-05-08 10:21 46.09248 6.70342 36047 ft 449 kts 354°
2026-05-08 10:21 46.15490 6.71300 36045 ft 457 kts 13°
2026-05-08 10:22 46.21594 6.73887 36055 ft 457 kts 14°
2026-05-08 10:22 46.27697 6.76478 36050 ft 457 kts 13°
2026-05-08 10:23 46.33802 6.79061 36043 ft 457 kts 13°
2026-05-08 10:23 46.39905 6.81645 36057 ft 457 kts 14°
2026-05-08 10:24 46.46003 6.84247 36057 ft 457 kts 14°
2026-05-08 10:24 46.52068 6.87034 36046 ft 459 kts 21°
2026-05-08 10:25 46.57463 6.91999 36052 ft 463 kts 41°
2026-05-08 10:25 46.61718 6.99038 36055 ft 464 kts 51°
2026-05-08 10:26 46.65770 7.06363 36039 ft 465 kts 51°
2026-05-08 10:26 46.69825 7.13695 36043 ft 465 kts 51°
2026-05-08 10:27 46.73880 7.21043 36043 ft 465 kts 51°
2026-05-08 10:27 46.77931 7.28401 36084 ft 467 kts 51°
2026-05-08 10:27 46.79967 7.32107 36245 ft 469 kts 51°
2026-05-08 10:28 46.82005 7.35825 36468 ft 470 kts 51°
2026-05-08 10:28 46.84047 7.39558 36714 ft 471 kts 51°
2026-05-08 10:28 46.86092 7.43297 36983 ft 471 kts 51°
2026-05-08 10:28 46.88134 7.47034 37269 ft 471 kts 51°
2026-05-08 10:29 46.90175 7.50778 37551 ft 471 kts 51°
2026-05-08 10:29 46.92213 7.54528 37822 ft 471 kts 51°
2026-05-08 10:29 46.94250 7.58280 38025 ft 471 kts 51°
2026-05-08 10:30 46.98317 7.65787 38048 ft 470 kts 51°
2026-05-08 10:30 47.02374 7.73304 38048 ft 470 kts 51°
2026-05-08 10:31 47.06427 7.80831 38051 ft 470 kts 51°
2026-05-08 10:31 47.10467 7.88370 38058 ft 470 kts 51°
2026-05-08 10:32 47.14384 7.96053 38070 ft 470 kts 57°
2026-05-08 10:32 47.17836 8.04133 38067 ft 470 kts 57°
2026-05-08 10:33 47.21312 8.12273 38068 ft 470 kts 57°
2026-05-08 10:33 47.24778 8.20424 38065 ft 470 kts 57°
2026-05-08 10:34 47.28273 8.28637 38064 ft 470 kts 54°
2026-05-08 10:34 47.32706 8.35606 38056 ft 466 kts 35°
2026-05-08 10:35 47.38084 8.40900 38052 ft 465 kts 31°
2026-05-08 10:35 47.43467 8.46098 38072 ft 466 kts 31°
2026-05-08 10:36 47.48916 8.51390 38085 ft 466 kts 31°
2026-05-08 10:36 47.54297 8.56622 38088 ft 466 kts 31°
2026-05-08 10:37 47.59706 8.61896 38082 ft 466 kts 31°
2026-05-08 10:37 47.65111 8.67188 38079 ft 465 kts 31°
2026-05-08 10:38 47.70515 8.72478 38087 ft 465 kts 31°
2026-05-08 10:38 47.75909 8.77775 38082 ft 465 kts 31°
2026-05-08 10:39 47.81294 8.83089 38074 ft 464 kts 31°
2026-05-08 10:39 47.86682 8.88399 38073 ft 464 kts 31°
2026-05-08 10:40 47.92058 8.93726 38072 ft 464 kts 32°
2026-05-08 10:40 47.97433 8.99063 38071 ft 464 kts 32°
2026-05-08 10:41 48.02806 9.04403 38070 ft 464 kts 32°
2026-05-08 10:41 48.08179 9.09758 38086 ft 464 kts 32°
2026-05-08 10:42 48.13557 9.15085 38087 ft 463 kts 27°
2026-05-08 10:42 48.19472 9.18588 38084 ft 455 kts
2026-05-08 10:43 48.25716 9.19776 38074 ft 452 kts
2026-05-08 10:43 48.31974 9.20816 38082 ft 452 kts
2026-05-08 10:44 48.38229 9.21898 38083 ft 452 kts
2026-05-08 10:44 48.44477 9.22972 38081 ft 452 kts
2026-05-08 10:45 48.50728 9.24031 38086 ft 452 kts
2026-05-08 10:45 48.56979 9.25085 38083 ft 452 kts
2026-05-08 10:46 48.63230 9.26144 38082 ft 452 kts
2026-05-08 10:46 48.69483 9.27126 38082 ft 452 kts
2026-05-08 10:47 48.75737 9.28048 38092 ft 452 kts
2026-05-08 10:47 48.81989 9.28981 38091 ft 451 kts
2026-05-08 10:48 48.88241 9.29937 38093 ft 451 kts
2026-05-08 10:48 48.94488 9.30905 38103 ft 451 kts
2026-05-08 10:49 49.00738 9.31872 38104 ft 451 kts
2026-05-08 10:49 49.06984 9.32839 38109 ft 451 kts
2026-05-08 10:50 49.13229 9.33810 38102 ft 451 kts
2026-05-08 10:50 49.19472 9.34779 38116 ft 451 kts
2026-05-08 10:51 49.25716 9.35754 38113 ft 451 kts
2026-05-08 10:51 49.31962 9.36732 38119 ft 451 kts
2026-05-08 10:52 49.38201 9.37712 38132 ft 451 kts
2026-05-08 10:52 49.44442 9.38687 38132 ft 451 kts
2026-05-08 10:53 49.50679 9.39670 38129 ft 450 kts
2026-05-08 10:53 49.56915 9.40662 38126 ft 450 kts
2026-05-08 10:54 49.63150 9.41648 38130 ft 450 kts
2026-05-08 10:54 49.69386 9.42640 38126 ft 450 kts
2026-05-08 10:55 49.75619 9.43627 38126 ft 450 kts
2026-05-08 10:55 49.81814 9.44611 38135 ft 451 kts
2026-05-08 10:56 49.88054 9.45621 38129 ft 451 kts
2026-05-08 10:56 49.94289 9.46639 38125 ft 451 kts
2026-05-08 10:57 50.00530 9.47648 38125 ft 451 kts
2026-05-08 10:57 50.08814 9.49309 38130 ft 453 kts
2026-05-08 10:58 50.14980 9.51376 38122 ft 453 kts
2026-05-08 10:58 50.21141 9.53454 38131 ft 453 kts
2026-05-08 10:59 50.27304 9.55529 38137 ft 453 kts
2026-05-08 10:59 50.33467 9.57608 38135 ft 453 kts
2026-05-08 11:00 50.39631 9.59688 38135 ft 453 kts
2026-05-08 11:00 50.45796 9.61774 38135 ft 453 kts
2026-05-08 11:01 50.51960 9.63856 38154 ft 453 kts
2026-05-08 11:01 50.58126 9.65949 38152 ft 453 kts
2026-05-08 11:02 50.67370 9.69122 38155 ft 453 kts
2026-05-08 11:02 50.70446 9.70175 38032 ft 452 kts
2026-05-08 11:03 50.73520 9.71225 37546 ft 452 kts
2026-05-08 11:03 50.76590 9.72275 37183 ft 450 kts
2026-05-08 11:03 50.79650 9.73327 37136 ft 451 kts
2026-05-08 11:04 50.85799 9.75448 37151 ft 453 kts
2026-05-08 11:04 50.91955 9.77573 37152 ft 453 kts
2026-05-08 11:05 50.98069 9.79689 37151 ft 453 kts
2026-05-08 11:05 51.04228 9.81829 37152 ft 453 kts
2026-05-08 11:06 51.10387 9.83966 37152 ft 453 kts
2026-05-08 11:06 51.16543 9.86121 37168 ft 453 kts
2026-05-08 11:07 51.22694 9.88344 37156 ft 455 kts 13°
2026-05-08 11:07 51.28693 9.91598 37158 ft 456 kts 16°
2026-05-08 11:08 51.34685 9.94922 37159 ft 456 kts 16°
2026-05-08 11:08 51.40674 9.98243 37164 ft 456 kts 16°
2026-05-08 11:09 51.46664 10.01562 37166 ft 455 kts 16°
2026-05-08 11:09 51.52650 10.04896 37168 ft 455 kts 17°
2026-05-08 11:10 51.58632 10.08245 37166 ft 455 kts 17°
2026-05-08 11:10 51.64616 10.11598 37165 ft 455 kts 17°
2026-05-08 11:11 51.70598 10.14953 37170 ft 455 kts 17°
2026-05-08 11:11 51.76577 10.18308 37171 ft 455 kts 17°
2026-05-08 11:12 51.82554 10.21675 37171 ft 455 kts 17°
2026-05-08 11:12 51.88523 10.25064 37169 ft 455 kts 17°
2026-05-08 11:13 51.94451 10.28437 37174 ft 455 kts 17°
2026-05-08 11:13 52.00420 10.31834 37175 ft 455 kts 17°
2026-05-08 11:14 52.06386 10.35245 37180 ft 454 kts 17°